User: anonymous   Login
Location: Unspecified
(0.0000°N, 0.0000°E)
Time: 05:44:21
(UTC+02:00)
Language:

Delta 2 Rocket - Orbit

View from above orbital plane
View from above orbital plane
View from above satellite
View from above satellite

Ground track
Ground track

The orbit data is extracted from the following two-line orbital elements,

1 20453U 90008B   15246.78168019 +.00003937 +00000-0 +23678-3 0  9990
2 20453 035.6255 094.9255 0301834 154.1046 207.5118 14.79648189351387
Epoch (UTC): 03 September 2015 18:45:37
Eccentricity: 0.0301834
inclination: 35.6255°
perigee height: 419 km
apogee height: 842 km
right ascension of ascending node: 94.9255°
argument of perigee: 154.1046°
revolutions per day: 14.79648189
mean anomaly at epoch: 207.5118°
orbit number at epoch: 35138

The dashed part of the orbit path shows where the satellite is in the earth's shadow,  

DLR